858  
ASUS44 KMAF 241010  
RWRMAF  
MIDLAND AREA WEATHER ROUNDUP  
NATIONAL WEATHER SERVICE MIDLAND TX  
500 AM CDT SUN JUN 24 2018  
   
..IN SOUTHWEST TEXAS AND SOUTHEAST NEW MEXICO
 
 
 
CITY SKY/WX TMP DP RH WIND PRES REMARKS
 
ALPINE CLOUDY 76 48 36 W10 29.98R  
ANDREWS FAIR 80 64 58 S15G23 29.80S  
ARTESIA CLEAR 72 41 33 S9 29.78R  
BIG SPRING CLEAR 81 66 61 S26G32 29.80S  
CARLSBAD CLEAR 72 43 35 S5 29.77R  
DRYDEN N/A 82 69 64 E17G24 29.79R  
FORT STOCKTON CLOUDY 80 64 58 SE20 29.80R  
GUAD PASS CLEAR 75 37 25 W26 29.96S  
HOBBS CLEAR 79 63 57 S15G23 29.82S  
LAMESA FAIR 81 66 61 S18G36 29.80R  
MARFA CLEAR 62 49 62 NW5 29.99  
MIDLAND AIRPK N/A 83 67 59 S21G29 29.80F  
MIDLAND INTL CLEAR 82 66 58 S23G30 29.79F  
ODESSA CLEAR 82 64 54 S22G28 29.81S  
PECOS CLEAR 71 51 48 S8 29.75R  
PRESIDIO FAIR 83 52 33 NW9 29.84R  
SEMINOLE CLEAR 80 63 55 S15 29.82S  
SNYDER CLEAR 80 67 64 S15G22 29.77F  
WINK CLEAR 82 63 52 SE14 29.75R  

   
..OTHER STATIONS IN TEXAS
 
 
 
CITY SKY/WX TMP DP RH WIND PRES REMARKS
 
ABILENE PTCLDY 78 71 79 S16G25 29.72F  
AMARILLO CLEAR 69 65 86 NE13 29.82R  
AUSTIN PTCLDY 79 74 84 S15 29.84F  
BROWNSVILLE FAIR 81 78 91 SE9 29.85S  
CORPUS CHRISTI PTCLDY 79 79 100 S15G23 29.84S  
DALLAS FTW MOCLDY 81 72 74 S16G26 29.69R  
DEL RIO MOCLDY 83 71 67 E17G28 29.78R  
EL PASO CLEAR 84 34 16 W13G18 29.87R  
HOUSTON INT FAIR 80 77 90 S7 29.88S  
LUBBOCK PTCLDY 81 66 60 S20G29 29.77S  
SAN ANGELO CLEAR 82 72 71 S20G26 29.78R  
SAN ANTONIO MOCLDY 79 72 79 SE9 29.88S  
WACO CLOUDY 80 72 76 S24G33 29.77F  
WICHITA FALLS TSTM 69 66 90 S9 29.83R  

   
..OTHER LOCATIONS IN NEW MEXICO
 
 
 
CITY SKY/WX TMP DP RH WIND PRES REMARKS
 
ALAMOGORDO CLEAR 72 28 20 E3 29.87R  
ALBUQUERQUE CLEAR 69 25 19 SE12 29.95R  
CANNON AFB CLEAR 74 70 87 S17 29.82F  
CLOVIS CLEAR 74 62 66 S17G23 29.82F  
HOLLOMAN AFB CLEAR 76 30 19 CALM 29.88R  
ROSWELL CLEAR 72 43 35 S9 29.78R  
RUIDOSO CLEAR 70 23 17 W9 30.08R  
SANTA FE CLEAR 67 18 15 SE3 30.00R  
TRUTH OR CONSE CLEAR 80 28 15 NW14G22 29.91R  
TUCUMCARI CLEAR 71 61 70 E6 29.76F  

 
 
 
CLICK HERE TO GO TO PREVIOUS BULLETINS.

The Nexlab TX Page
The Nexlab NM Page Main Text Page